FW7487 Weather Reports


time (UTC)temp
C
wind
direction
speed
KPH
gust
KPH
rain 1hr
cm
rain 24hr
cm
rain mn
cm
humidity
%
barometer
mb
20260505051547 12 0 0.0 1.6 0.00 0.00 0.00 75 1016.1
20260505041610 13 0 0.0 1.6 0.00 0.00 0.00 75 1016.1
20260505040051 13 0 0.0 0.0 0.00 0.00 0.00 74 1016.3
20260505034548 13 0 0.0 0.0 0.00 0.00 0.00 73 1016.5
20260505033042 14 0 0.0 0.0 0.00 0.00 0.00 72 1016.5
20260505031600 15 0 0.0 0.0 0.00 0.00 0.00 70 1016.6
20260505030049 15 0 0.0 0.0 0.00 0.00 0.00 68 1016.5
20260505024549 15 0 0.0 1.6 0.00 0.00 0.00 68 1016.7
20260505023049 16 0 0.0 0.0 0.00 0.00 0.00 65 1016.6
20260505021548 16 0 0.0 1.6 0.00 0.00 0.00 64 1016.6
20260505020044 17 0 0.0 0.0 0.00 0.00 0.00 62 1016.5
20260505014550 17 0 0.0 0.0 0.00 0.00 0.00 58 1016.2
20260505013048 18 0 0.0 1.6 0.00 0.00 0.00 56 1015.8
20260505011547 18 0 0.0 1.6 0.00 0.00 0.00 56 1015.8
20260505010047 19 0 0.0 1.6 0.00 0.00 0.00 52 1015.7
20260505004546 20 0 0.0 0.0 0.00 0.00 0.00 50 1015.6
20260505003047 21 0 0.0 4.8 0.00 0.00 0.00 47 1015.4
20260505001552 21 360 0.0 1.6 0.00 0.00 0.00 46 1015.4
20260505000055 22 0 0.0 6.4 0.00 0.00 0.00 44 1015.5
20260504234557 22 0 0.0 14.5 0.00 0.00 0.00 42 1015.5
20260504233050 23 360 1.6 6.4 0.00 0.00 0.00 40 1015.5
20260504231559 23 360 1.6 4.8 0.00 0.00 0.00 40 1015.5
20260504230049 23 0 1.6 9.7 0.00 0.00 0.00 40 1015.5
20260504224549 24 0 1.6 8.0 0.00 0.00 0.00 38 1015.4
20260504223052 25 158 4.8 12.9 0.00 0.00 0.00 35 1015.5
20260504221558 25 182 3.2 9.7 0.00 0.00 0.00 36 1015.6
20260504220047 25 121 1.6 8.0 0.00 0.00 0.00 35 1015.2
20260504214548 25 130 3.2 11.3 0.00 0.00 0.00 36 1015.2
20260504213048 25 171 4.8 17.7 0.00 0.00 0.00 34 1015.3
20260504211549 25 128 3.2 11.3 0.00 0.00 0.00 34 1015.3
20260504210105 26 223 1.6 14.5 0.00 0.00 0.00 33 1015.4
20260504204559 26 185 1.6 6.4 0.00 0.00 0.00 33 1015.5
20260504203049 26 123 3.2 9.7 0.00 0.00 0.00 34 1015.7
20260504201548 26 143 1.6 11.3 0.00 0.00 0.00 32 1015.7
20260504200051 26 178 0.0 9.7 0.00 0.00 0.00 34 1016.0
20260504194600 25 151 3.2 11.3 0.00 0.00 0.00 36 1016.1
20260504193046 25 161 3.2 14.5 0.00 0.00 0.00 37 1016.4
20260504191549 25 196 1.6 8.0 0.00 0.00 0.00 34 1016.8
20260504184546 25 157 3.2 12.9 0.00 0.00 0.00 34 1017.0
20260504183050 25 342 4.8 12.9 0.00 0.00 0.00 34 1017.3
20260504181550 25 321 1.6 11.3 0.00 0.00 0.00 35 1017.3
20260504180138 25 153 1.6 8.0 0.00 0.00 0.00 34 1017.6
20260504174542 24 304 4.8 14.5 0.00 0.00 0.00 36 1017.7
20260504173059 23 150 1.6 14.5 0.00 0.00 0.00 34 1017.6
20260504171549 23 189 1.6 14.5 0.00 0.00 0.00 36 1017.8
20260504081557 7 0 0.0 0.0 0.00 0.00 0.00 88 1018.6